Regional Weather Roundup
Issued by NWS

Home | Current Version | Previous Version | Graphics & Text | Print | Product List | Glossary On
Versions: 1 2 3 4 5 6 7 8 9 10 11 12 13 14 15 16 17 18 19 20 21 22 23 24 25 26 27 28 29 30 31 32 33 34 35 36 37 38 39 40 41 42 43 44 45 46 47 48 49 50
000
ASUS43 KLSX 011607
RWRMO

WEATHER SUMMARY FOR MISSOURI
NATIONAL WEATHER SERVICE SPRINGFIELD MO
1000 AM CST WED MAR 01 2017

NOTE: "FAIR" INDICATES FEW OR NO CLOUDS BELOW 12,000 FEET WITH NO
       SIGNIFICANT WEATHER AND/OR OBSTRUCTIONS TO VISIBILITY.
       CURRENT SKY AND/OR WEATHER CONDITIONS ARE NOT AVAILABLE FOR
       CHILLICOTHE AND FARMINGTON.

MOZ001>031-035>038-043-044-053-054-011700-
...NORTHERN AND WESTERN MISSOURI...

CITY           SKY/WX    TMP DP  RH WIND       PRES   REMARKS
KANSAS CTY INT MOSUNNY   41  28  60 W18       30.03R
KANSAS C DTWN  MOSUNNY   42  28  57 NW17G25   30.05R
LEE`S SUMMIT   MOSUNNY   41  30  65 W17G25    30.04R
ST JOSEPH      PTSUNNY   41  29  62 NW26G37   30.04R
CHILLICOTHE      N/A     38  30  73 NW12G18   29.99R
KIRKSVILLE     CLOUDY    38  31  76 W21G33    29.91R WCI  28

$$
MOZ066>068-077>081-088>096-101>105-011700-
...SOUTHWEST MISSOURI...

CITY           SKY/WX    TMP DP  RH WIND       PRES   REMARKS
SPRINGFIELD    MOSUNNY   45  33  63 W17G23    30.03R
JOPLIN         SUNNY     45  32  60 NW17G28   30.11R
BRANSON        SUNNY     45  32  61 W12G18    30.05R

$$
MOZ032>034-039>042-045>050-055>058-069>072-011700-
...CENTRAL MISSOURI...

CITY           SKY/WX    TMP DP  RH WIND       PRES   REMARKS
COLUMBIA       CLOUDY    43  34  70 W18G29    29.94R
JEFFERSON CITY CLOUDY    44  34  67 W18       29.96R
ROLLA          LGT RAIN  44  34  67 W23G33    29.92R
SEDALIA        PTSUNNY   43  33  68 W21G26    30.00R
WHITEMAN AFB   MOSUNNY   43  33  69 W22       29.99R
WARRENSBURG    MOSUNNY   41  30  65 W18G26    30.03R
OSAGE BEACH    CLOUDY    43  34  70 NW14G22   30.00R

$$
MOZ051-052-059>065-011700-
...EAST CENTRAL MISSOURI...

CITY           SKY/WX    TMP DP  RH WIND       PRES   REMARKS
ST LOUIS INTL  CLOUDY    47  38  71 W23G33    29.85R
SPIRIT OF STL  CLOUDY    46  38  73 W20       29.86R
ST CHARLES     CLOUDY    45  39  79 W24G32    29.84R

$$
MOZ072>076-082>087-097>100-106>115-011700-
...SOUTH CENTRAL AND SOUTHEAST MISSOURI...

CITY           SKY/WX    TMP DP  RH WIND       PRES   REMARKS
CAPE GIRARDEAU MOSUNNY   57  45  64 NW21      29.84R
FARMINGTON     CLOUDY    49  40  71 NW22G29   29.88R
POPLAR BLUFF   MOSUNNY   58  46  64 W12G25    29.88R
WEST PLAINS    SUNNY     51  33  50 W17G30    29.97R

$$



USA.gov is the U.S. government's official web portal to all federal, state and local government web resources and services.